This demonstration page uses our WeatherBlox Daily Observations layout. Learn more.

Left ArrowRight Arrow

36.17497, -115.13722

Hourly Observations for February 22, 2020

Temp ( °F °C ) Dew Point ( °F °C ) Humidity (%) Winds ( mph kmh ) Pressure ( in mb ) Visibility ( mi km ) Precip ( " mm )
12:53 am 00:53 Mostly Clear 53 11.7 21 -6.1 28 28 WNW 5 7 30.04 1017 10 16.0934 0 0
1:53 am 01:53 Mostly Cloudy 54 12.2 26 -3.3 34 34 Calm 30.03 1017 10 16.0934 0.001 0.001
2:53 am 02:53 Mostly Cloudy 54 12.2 27 -2.8 35 35 NW 6 9 30 1016 10 16.0934 0.001 0.001
3:53 am 03:53 Cloudy 53 11.7 33 0.6 47 47 Calm 29.99 1016 10 16.0934 0.001 0.001
4:53 am 04:53 Cloudy with Light Rain 55 12.8 34 1.1 45 45 W 3 6 29.98 1015 10 16.0934 0.001 0.001
5:53 am 05:53 Cloudy 52 11.1 40 4.4 64 64 SSE 8 13 29.98 1015 10 16.0934 0.001 0.001
6:53 am 06:53 Cloudy 54 12.2 38 3.3 55 55 SW 3 6 29.98 1015 10 16.0934 0.001 0.001
7:53 am 07:53 Mostly Cloudy 57 13.9 30 -1.1 36 36 SW 3 6 29.98 1015 10 16.0934 0 0
8:53 am 08:53 Cloudy 58 14.4 33 0.6 39 39 WSW 3 6 29.97 1015 10 16.0934 0.001 0.001
9:53 am 09:53 Cloudy with Light Rain 56 13.3 36 2.2 47 47 E 7 11 30 1016 10 16.0934 0.01 0.254
10:53 am 10:53 Cloudy with Light Rain 51 10.6 42 5.6 71 71 N 8 13 30.01 1016 7 11.26538 0.1 2.54
11:53 am 11:53 Mostly Sunny 55 12.8 43 6.1 64 64 NW 7 11 29.98 1015 10 16.0934 0.001 0.001
12:53 pm 12:53 Partly Cloudy 60 15.6 41 5 50 50 NNE 6 9 29.94 1014 10 16.0934 0 0
1:53 pm 13:53 Cloudy 56 13.3 46 7.8 70 70 E 14 22 29.93 1014 10 16.0934 0 0
2:53 pm 14:53 Cloudy with Light Rain 56 13.3 46 7.8 70 70 E 9 15 29.94 1014 6 9.65604 0.01 0.254
3:27 pm 15:27 Cloudy with Rain 53 11.7 46 7.8 77 77 N 8 13 29.91 1013 2.5 4.02335 0.08 2.032
3:37 pm 15:37 Cloudy with Heavy Rain 53 11.7 46 7.8 77 77 Calm 29.92 1013 1.25 2.011675 0.17 4.318
3:47 pm 15:47 Cloudy with Rain 52 11 45 7 77 77 SSE 12 19 29.92 1013 2 3.21868 0.21 5.334
3:53 pm 15:53 Cloudy with Rain 52 11.1 45 7.2 77 77 ESE 15 24 29.95 1014 3 4.82802 0.23 5.842
4:02 pm 16:02 Cloudy with Light Rain 52 11.1 46 7.8 80 80 E 10 17 29.9 1012 6 9.65604 0.01 0.254
4:53 pm 16:53 Cloudy 53 11.7 45 7.2 74 74 ENE 5 7 29.96 1015 10 16.0934 0.01 0.254
5:00 pm 17:00 Cloudy 53 11.7 45 7.2 74 74 ENE 7 11 29.91 1013 10 16.0934 0 0
5:53 pm 17:53 Mostly Cloudy 52 11.1 43 6.1 72 72 Calm 29.97 1015 10 16.0934 0 0
6:53 pm 18:53 Cloudy 52 11.1 45 7.2 77 77 NE 5 7 29.98 1015 10 16.0934 0 0
7:53 pm 19:53 Mostly Clear 51 10.6 45 7.2 80 80 ESE 6 9 29.99 1016 10 16.0934 0.001 0.001
8:53 pm 20:53 Cloudy 51 10.6 43 6.1 74 74 WNW 5 7 30.01 1016 10 16.0934 0 0
9:53 pm 21:53 Cloudy 51 10.6 45 7.2 80 80 Calm 30.02 1017 10 16.0934 0 0
10:53 pm 22:53 Partly Cloudy 51 10.6 45 7.2 80 80 WNW 3 6 30.03 1017 10 16.0934 0 0
11:53 pm 23:53 Cloudy 51 10.6 42 5.6 71 71 NW 12 19 30.03 1017 10 16.0934 0 0

Powered by AerisWeather